EHI
0 0 0 0 0 0 0 0 0 0 0 0 0 0 0 0 0 0 0 0 0 0 0 0 0 0 0 0 0 0 0 0 0 0 0 0 0 0 0 0 0 0 0 0
0 0 0 0 0 0 0 0 0 0 0 0 0 0 0 0 0 0 0 0 0 0 0 0 0 0 0 0 0 0 0 0 0 0 0 0 0 0 0 0 0 0 0 0
0 0 0 0 0 0 0 0 0 0 0 0 0 0 0 0 0 0 0 0 0 0 0 0 0 0 0 0 0 0 0 0 0 0 0 0 0 0 0 0 0 0 0 0
0 0 0 0 0 0 0 0 0 0 0 0 0 0 0 0 0 0 0 0 0 0 0 0 0 0 0 0 0 0 0 0 0 0 0 0 0 0 0 0 0 1 1 0
0 0 0 0 0 0 0 0 0 0 0 0 0 0 0 0 0 0 0 0 0 0 0 0 0 0 0 0 0 0 0 0 0 0 0 0 0 0 0 0 1 2 2 1
0 0 0 0 0 0 0 0 0 0 0 0 0 0 0 0 0 0 0 0 0 0 0 0 0 0 0 0 0 0 0 0 0 0 0 0 0 0 0 0 1 2 2 2
0 0 0 0 0 0 0 0 0 0 0 0 0 0 0 0 0 0 0 0 0 0 0 0 0 0 0 0 0 0 0 0 0 0 0 0 0 0 0 1 1 2 2 2
0 0 0 0 0 0 0 0 0 0 0 0 0 0 0 0 0 0 0 0 0 0 0 0 0 0 0 0 0 0 0 0 0 0 0 0 0 0 0 1 1 1 1 2
0 0 0 0 0 0 0 0 0 0 0 0 0 0 0 0 0 0 0 0 0 0 0 0 0 0 0 0 0 0 0 0 0 0 0 0 0 0 0 0 0 0 0 1
0 0 0 0 0 0 0 0 0 0 0 0 0 0 0 0 0 0 0 0 0 0 0 0 0 0 0 0 0 0 0 0 0 0 0 0 0 0 0 0 0 0 0 0
0 0 0 0 0 0 0 0 0 0 0 0 0 0 0 0 0 0 0 0 0 0 0 0 0 0 0 0 0 0 0 0 0 0 0 0 0 0 0 0 0 0 0 0
0 0 0 0 0 0 0 0 0 0 0 0 0 0 0 0 0 0 0 0 0 0 0 0 0 0 0 0 0 0 0 0 0 0 0 0 0 0 0 0 0 0 0 0
0 0 0 0 0 0 0 0 0 0 0 0 0 0 0 0 0 0 0 0 0 0 0 0 0 0 0 0 0 0 0 0 0 0 0 0 0 0 0 0 0 0 0 0
0 0 0 0 0 0 0 0 0 0 0 0 0 0 0 0 0 0 0 0 0 0 0 0 0 0 0 0 0 0 0 0 0 0 0 0 0 0 0 0 0 0 0 0
0 0 0 0 0 0 0 0 0 0 0 0 0 0 0 0 0 0 0 0 0 0 0 0 0 0 0 0 0 0 0 0 0 0 0 0 0 0 0 0 0 0 0 0
0 0 0 0 0 0 0 0 0 0 0 0 0 0 0 0 0 0 0 0 0 0 0 0 0 0 0 0 0 0 0 0 0 0 0 0 0 0 0 0 0 0 0 0
0 0 0 0 0 0 0 0 0 0 0 0 0 0 0 0 0 0 0 0 0 0 0 0 0 0 0 0 0 0 0 0 0 0 0 0 0 0 0 0 0 0 0 0
0 0 0 0 0 0 0 0 0 0 0 0 0 0 0 0 0 0 0 0 0 0 0 0 0 0 0 0 0 0 0 0 0 0 0 0 0 0 0 0 0 0 0 0
0 0 0 0 0 0 0 0 0 0 0 0 0 0 0 0 0 0 0 0 0 0 0 0 0 0 0 0 0 0 0 0 0 0 0 0 0 0 0 0 0 0 0 0
0 0 0 0 0 0 0 0 0 0 0 0 0 0 0 0 0 0 0 0 0 0 0 0 0 0 0 0 0 0 0 0 0 0 0 0 0 0 0 0 0 0 0 0
0 0 0 0 0 0 0 0 0 0 0 0 0 0 0 0 0 0 0 0 0 0 0 0 0 0 0 0 0 0 0 0 0 0 0 0 0 0 0 0 0 0 0 0
0 0 0 0 0 0 0 0 0 0 0 0 0 0 0 0 0 0 0 0 0 0 0 0 0 0 0 0 0 0 0 0 0 0 0 0 0 0 0 0 0 0 0 0
0 0 0 0 0 0 0 0 0 0 0 0 0 0 0 0 0 0 0 0 0 0 0 0 0 0 0 0 0 0 0 0 0 0 0 0 0 0 0 0 0 0 0 0
0 0 0 0 0 0 0 0 0 0 0 0 0 0 0 0 0 0 0 0 0 0 0 0 0 0 0 0 0 0 0 0 0 0 0 0 0 0 0 0 0 0 0 0
0 0 0 0 0 0 0 0 0 0 0 0 0 0 0 0 0 0 0 0 0 0 0 0 0 0 0 0 0 0 0 0 0 0 0 0 0 0 0 0 0 0 0 0
0 0 0 0 0 0 0 0 0 0 0 0 0 0 0 0 0 0 0 0 0 0 0 0 0 0 0 0 0 0 0 0 0 0 0 0 0 0 0 0 0 0 0 0
Wind_Speed
2 2 2 2 3 4 3 3 4 2 1 3 6 7 5 1 1 2 3 4 4 5 5 5 5 5 4 4 4 4 4 3 2 1 1 2 2 2 2 2 3 4 4 4
1 2 1 0 1 3 4 3 3 2 2 4 6 7 5 2 2 0 2 3 4 5 6 6 6 5 5 4 4 4 4 3 2 2 1 2 2 2 2 2 2 4 5 5
1 1 0 1 1 3 3 3 3 3 5 6 5 5 4 3 2 1 2 2 4 5 5 6 6 5 5 5 4 4 5 4 3 2 1 1 1 1 1 2 2 3 4 4
0 1 1 1 2 2 2 2 3 4 3 3 3 4 2 3 1 1 3 4 4 5 5 5 6 6 6 5 4 4 5 4 3 2 1 2 2 3 3 2 3 3 3 4
0 1 0 1 1 2 1 4 3 4 4 4 4 3 3 3 1 2 3 4 4 4 4 5 6 5 6 5 5 4 5 5 4 2 2 1 2 2 2 2 2 2 3 3
1 1 1 1 1 1 2 3 4 3 2 4 4 3 3 1 1 2 2 4 4 5 5 6 6 6 6 6 6 5 5 5 4 3 2 2 2 3 3 3 2 2 2 2
1 2 1 0 1 1 1 2 1 1 2 4 2 2 2 2 3 2 2 3 4 5 5 6 7 7 7 7 7 6 5 5 4 4 3 2 2 2 3 3 2 2 2 2
0 1 2 0 1 0 1 1 1 2 2 2 1 3 1 4 4 3 3 3 4 5 5 6 6 7 7 8 7 7 7 6 5 4 4 3 2 2 1 1 1 2 2 2
2 1 2 1 1 1 1 0 1 2 4 3 3 3 3 4 4 3 3 4 4 5 5 5 6 7 7 7 7 7 7 7 6 5 4 3 3 2 2 1 1 1 2 2
3 1 1 1 1 2 1 2 1 2 2 3 3 2 1 1 0 1 2 3 4 4 5 5 5 6 6 6 6 7 7 7 6 5 4 4 3 3 2 1 1 1 2 2
2 1 1 1 2 2 2 2 2 3 2 2 3 2 2 3 2 1 1 2 2 4 4 4 5 5 6 6 7 7 7 7 7 6 5 5 4 4 4 3 2 2 2 2
1 1 2 2 1 1 1 2 2 1 3 3 3 4 1 3 3 2 1 2 2 3 3 4 4 4 5 6 6 7 7 7 7 6 5 5 5 5 5 4 4 3 2 2
2 1 2 1 1 1 3 3 3 2 2 3 3 4 1 2 2 1 0 1 2 3 3 4 4 4 5 5 6 6 6 6 6 6 5 5 6 6 5 5 5 4 3 2
3 2 3 3 2 1 4 4 4 4 3 4 6 6 3 2 1 1 0 0 1 2 2 3 3 4 4 5 5 5 6 5 6 5 6 6 6 6 5 5 5 4 4 3
2 3 4 7 8 6 7 7 7 8 7 6 6 5 5 3 2 2 1 0 1 2 2 3 3 3 4 4 5 5 5 5 5 6 6 6 6 5 5 5 5 5 5 4
2 3 4 6 7 7 9 9 9 9 9 9 9 10 4 2 1 2 1 1 1 2 2 2 3 3 4 4 4 5 5 5 5 5 5 5 6 6 5 5 5 5 5 4
2 2 3 4 3 5 8 8 10 7 6 6 8 6 2 2 3 3 2 2 2 1 1 2 2 2 3 3 3 4 4 4 5 5 5 5 5 5 5 5 5 5 5 4
3 3 3 4 5 6 5 1 3 5 6 6 6 5 3 3 2 3 2 2 2 1 1 2 2 2 2 2 2 3 3 3 4 5 5 5 5 5 5 5 5 5 4 4
3 3 3 3 5 8 4 2 2 3 5 5 5 4 2 1 2 3 2 2 1 1 1 1 1 2 1 2 2 2 3 3 3 4 5 5 5 5 5 6 6 5 5 4
2 2 3 3 4 7 3 2 2 1 5 2 2 2 1 1 2 3 1 1 1 1 1 1 1 1 1 1 2 2 2 3 3 4 4 4 4 5 5 5 5 5 4 4
3 4 5 6 6 8 2 3 4 3 4 0 0 1 2 3 4 2 1 1 2 1 1 1 1 1 1 1 1 2 2 2 3 3 3 4 4 4 4 4 4 4 4 5
6 5 6 5 6 9 3 4 5 4 0 0 1 2 2 3 2 2 2 2 2 2 1 1 1 1 1 1 1 2 2 2 2 2 3 3 4 4 4 4 4 4 5 5
6 6 4 7 8 3 4 5 3 1 2 2 2 3 2 3 4 3 3 3 3 3 3 2 2 2 2 1 1 2 3 2 2 2 3 3 4 3 4 4 5 4 4 4
5 4 4 6 7 5 5 5 5 4 4 3 3 3 3 4 4 4 3 3 3 3 3 3 3 3 3 2 2 2 2 2 1 2 3 3 3 3 4 3 3 3 4 4
5 3 4 8 8 6 6 5 4 3 3 3 4 4 4 4 5 5 4 4 4 3 3 3 4 4 4 2 2 2 1 1 2 2 2 2 2 3 3 3 3 3 3 3
7 8 8 9 6 4 4 2 2 3 4 4 5 5 4 4 5 5 5 4 4 4 3 3 4 4 3 3 2 2 2 1 1 2 2 2 2 2 2 3 4 4 4 6
Wind_Direction
217 214 204 214 245 295 293 275 274 285 278 286 266 271 268 244 298 316 335 351 346 338 336 341 340 337 334 336 329 326 316 305 300 272 244 228 238 236 219 210 206 196 188 182
236 235 262 111 272 277 273 274 286 304 328 296 273 273 259 183 180 291 354 348 340 342 343 341 340 340 336 334 331 326 318 307 293 269 257 239 240 235 217 220 213 204 192 186
244 352 206 198 236 260 282 283 300 321 313 265 268 275 203 167 166 89 21 357 354 349 339 339 344 343 335 334 333 328 320 310 295 280 270 261 247 250 234 220 212 216 206 191
301 227 202 214 261 282 284 339 335 318 310 284 276 288 224 167 174 9 6 2 355 350 349 349 350 348 343 334 329 327 323 320 314 287 247 230 226 234 236 219 208 210 208 193
77 78 140 229 314 328 305 333 300 279 279 288 243 247 267 132 267 322 355 357 358 1 358 356 356 353 351 350 341 326 329 337 336 321 277 261 247 238 240 225 196 207 207 199
121 71 6 328 352 305 305 300 272 241 268 267 225 207 276 156 238 315 352 0 359 2 3 6 6 6 5 2 352 351 346 340 343 338 340 317 277 249 228 226 207 212 212 204
94 136 127 350 3 55 347 343 337 269 230 246 162 184 246 92 85 59 359 348 360 5 5 7 5 3 2 359 355 354 353 347 349 354 349 334 309 274 233 222 210 216 219 214
73 148 138 116 13 308 262 296 343 301 287 303 227 214 159 85 78 60 30 13 13 7 6 8 3 1 359 355 353 357 358 357 358 359 352 345 329 315 296 261 235 235 233 227
354 26 95 82 7 340 302 272 347 292 285 275 242 181 123 74 65 40 22 19 10 8 7 6 4 4 0 355 355 358 359 1 4 2 358 357 348 334 318 322 296 274 266 253
334 308 233 153 208 225 259 318 302 266 301 288 267 213 200 154 164 17 15 14 5 2 3 4 5 5 360 356 355 2 5 4 5 6 4 357 353 345 334 332 315 296 274 253
326 307 265 211 208 192 182 215 257 270 273 283 295 295 51 121 111 56 7 8 9 358 357 0 3 6 4 5 4 5 7 6 6 6 3 4 0 355 356 350 335 309 270 251
323 311 268 231 129 71 241 226 214 244 277 260 272 268 77 93 84 68 29 13 21 16 4 2 5 9 10 7 4 5 6 4 2 2 2 1 359 0 356 348 333 323 301 276
328 293 301 261 191 204 242 232 231 251 286 256 254 253 129 92 94 96 72 19 26 23 9 4 7 8 7 1 1 6 4 1 355 359 1 360 0 360 357 351 340 337 331 312
327 279 246 261 285 244 242 233 216 199 218 247 237 254 261 269 276 291 329 34 29 18 2 0 359 1 0 358 360 1 358 356 354 0 6 2 353 351 350 349 348 349 348 347
297 273 273 277 282 274 256 247 227 218 222 234 259 269 271 269 256 251 239 347 351 350 349 351 351 351 353 354 355 357 355 355 353 360 3 356 351 348 351 356 360 2 5 9
279 279 291 276 258 258 261 247 234 233 233 245 265 275 261 223 223 233 227 221 293 318 339 341 341 345 344 346 349 351 349 348 355 359 354 351 351 350 353 357 360 4 5 6
245 270 291 279 286 302 268 235 212 215 214 217 239 250 246 249 250 249 235 225 249 289 322 325 319 321 329 333 337 338 337 344 353 352 350 352 352 351 351 357 3 1 356 355
244 260 267 288 312 261 245 59 179 214 234 226 245 266 265 250 258 253 223 202 221 251 279 294 304 305 308 317 325 327 335 349 350 349 352 355 355 352 351 359 0 352 343 347
225 244 269 279 280 275 251 197 182 213 260 226 233 253 271 357 318 267 193 158 200 224 240 246 268 282 299 310 310 320 332 344 347 348 350 353 354 351 353 355 350 345 342 344
219 241 252 258 263 259 259 126 90 82 274 236 201 223 215 86 272 265 174 152 216 224 204 228 277 296 305 317 321 310 316 333 340 340 343 348 350 350 349 344 340 337 337 335
187 208 220 239 254 265 247 143 126 178 248 158 211 228 202 221 235 262 288 218 208 215 219 221 259 273 278 303 316 312 325 322 320 329 339 342 342 341 341 340 341 338 338 339
192 198 206 205 228 251 172 145 194 221 168 255 277 263 252 257 275 271 262 238 223 223 221 220 235 261 274 280 292 299 300 304 322 332 335 336 335 337 342 339 340 342 345 344
210 209 209 210 224 236 177 202 221 181 250 264 271 275 268 268 267 262 255 243 231 226 224 220 221 247 260 251 248 272 288 309 326 328 324 324 330 334 336 337 340 342 345 346
233 211 237 265 261 258 240 239 242 230 243 261 268 270 266 267 270 268 254 248 237 228 226 222 220 234 249 250 254 261 287 310 315 314 315 321 328 332 333 333 337 338 338 339
245 206 233 257 268 279 258 245 248 245 252 268 267 258 252 252 263 262 258 250 240 234 226 223 226 231 236 236 249 263 276 289 289 295 303 317 324 327 325 327 327 326 322 331
219 217 224 243 242 245 271 284 272 253 252 254 260 266 258 245 253 260 260 250 238 232 228 231 234 239 238 228 234 244 248 244 250 280 298 307 316 319 321 326 330 331 320 329